FW8359 Weather Reports


time (UTC)temp
C
wind
direction
speed
KPH
gust
KPH
rain 1hr
cm
rain 24hr
cm
rain mn
cm
humidity
%
barometer
mb
20260504045559 7 42 1.6 1.6 0.00 0.00 0.00 56 1013.7
20260504045054 7 45 1.6 1.6 0.00 0.00 0.00 56 1013.6
20260504044553 7 352 3.2 4.8 0.00 0.00 0.00 57 1013.5
20260504044049 7 60 1.6 1.6 0.00 0.00 0.00 56 1013.5
20260504043546 7 65 1.6 1.6 0.00 0.00 0.00 55 1013.6
20260504043044 7 10 3.2 4.8 0.00 0.00 0.00 56 1013.7
20260504042540 7 85 1.6 1.6 0.00 0.00 0.00 55 1013.6
20260504042038 7 49 1.6 1.6 0.00 0.00 0.00 55 1013.4
20260504041533 7 343 1.6 1.6 0.00 0.00 0.00 56 1013.6
20260504041029 7 351 1.6 1.6 0.00 0.00 0.00 56 1013.7
20260504040527 7 327 1.6 1.6 0.00 0.00 0.00 56 1013.7
20260504040024 7 348 3.2 4.8 0.00 0.00 0.00 55 1013.8
20260504035521 7 329 1.6 1.6 0.00 0.00 0.00 55 1013.6
20260504035017 7 47 1.6 1.6 0.00 0.00 0.00 56 1013.7
20260504034515 7 66 1.6 1.6 0.00 0.00 0.00 56 1013.5
20260504034011 7 105 0.0 0.0 0.00 0.00 0.00 54 1013.8
20260504033509 7 41 1.6 1.6 0.00 0.00 0.00 56 1013.6
20260504033007 7 55 1.6 1.6 0.00 0.00 0.00 55 1013.5
20260504032503 7 38 1.6 1.6 0.00 0.00 0.00 55 1013.6
20260504032000 7 77 1.6 1.6 0.00 0.00 0.00 55 1013.4
20260504031456 7 55 1.6 1.6 0.00 0.00 0.00 56 1013.6
20260504030953 8 105 0.0 0.0 0.00 0.00 0.00 53 1013.3
20260504030451 8 99 1.6 1.6 0.00 0.00 0.00 53 1013.4
20260504025946 8 72 1.6 1.6 0.00 0.00 0.00 53 1013.6
20260504025443 8 99 0.0 0.0 0.00 0.00 0.00 53 1013.5
20260504024940 8 126 0.0 0.0 0.00 0.00 0.00 51 1013.4
20260504024437 8 66 3.2 4.8 0.00 0.00 0.00 52 1013.1
20260504023934 8 86 0.0 1.6 0.00 0.00 0.00 51 1013.5
20260504023431 8 64 1.6 1.6 0.00 0.00 0.00 52 1013.5
20260504022926 8 338 1.6 1.6 0.00 0.00 0.00 52 1013.5
20260504022423 8 101 0.0 0.0 0.00 0.00 0.00 53 1013.5
20260504021920 8 76 1.6 1.6 0.00 0.00 0.00 53 1013.5
20260504021417 8 138 1.6 1.6 0.00 0.00 0.00 50 1013.5
20260504020914 10 141 0.0 0.0 0.00 0.00 0.00 50 1013.4
20260504020411 9 175 3.2 4.8 0.00 0.00 0.00 48 1013.5
20260504015907 9 129 0.0 0.0 0.00 0.00 0.00 49 1013.3
20260504015403 9 129 0.0 0.0 0.00 0.00 0.00 48 1013.5
20260504014900 10 123 0.0 0.0 0.00 0.00 0.00 49 1013.3
20260504014355 10 133 0.0 0.0 0.00 0.00 0.00 48 1013.3
20260504013853 10 148 1.6 1.6 0.00 0.00 0.00 45 1013.3
20260504013351 10 138 0.0 0.0 0.00 0.00 0.00 47 1013.4
20260504012847 10 148 0.0 0.0 0.00 0.00 0.00 45 1013.1
20260504012345 11 149 0.0 1.6 0.00 0.00 0.00 44 1013.3
20260504011842 11 151 1.6 1.6 0.00 0.00 0.00 43 1013.1
20260504011339 11 155 1.6 1.6 0.00 0.00 0.00 42 1012.9
20260504010835 11 155 0.0 1.6 0.00 0.00 0.00 42 1012.8
20260504010330 11 151 0.0 1.6 0.00 0.00 0.00 42 1013.1
20260504005827 11 145 1.6 1.6 0.00 0.00 0.00 42 1012.8
20260504005324 11 223 3.2 4.8 0.00 0.00 0.00 41 1012.8
20260504004822 12 141 0.0 0.0 0.00 0.00 0.00 42 1013.1
20260504004319 12 328 4.8 4.8 0.00 0.00 0.00 41 1012.9
20260504003815 12 177 3.2 4.8 0.00 0.00 0.00 41 1013.0
20260504003313 11 201 4.8 4.8 0.00 0.00 0.00 41 1012.9
20260504002809 12 169 1.6 1.6 0.00 0.00 0.00 40 1012.8
20260504002306 12 124 1.6 1.6 0.00 0.00 0.00 40 1012.7
20260504001804 12 183 4.8 6.4 0.00 0.00 0.00 40 1012.5
20260504001301 12 328 11.3 14.5 0.00 0.00 0.00 39 1012.6
20260504000758 12 144 0.0 0.0 0.00 0.00 0.00 40 1012.8
20260504000254 12 117 0.0 0.0 0.00 0.00 0.00 39 1012.6
20260503235752 12 187 6.4 6.4 0.00 0.00 0.00 38 1012.6
20260503235250 12 186 3.2 4.8 0.00 0.00 0.00 39 1012.8
20260503234747 12 135 0.0 1.6 0.00 0.00 0.00 38 1012.6
20260503234245 12 149 0.0 0.0 0.00 0.00 0.00 38 1012.6
20260503233742 12 142 0.0 0.0 0.00 0.00 0.00 39 1012.5
20260503233238 13 176 1.6 4.8 0.00 0.00 0.00 37 1012.6
20260503232735 13 161 1.6 1.6 0.00 0.00 0.00 38 1012.7
20260503232232 13 170 1.6 1.6 0.00 0.00 0.00 37 1012.5
20260503231730 13 208 3.2 4.8 0.00 0.00 0.00 38 1012.4
20260503231226 13 202 4.8 6.4 0.00 0.00 0.00 36 1012.6
20260503230722 13 204 8.0 14.5 0.00 0.00 0.00 36 1012.6
20260503230220 14 183 3.2 4.8 0.00 0.00 0.00 35 1012.5
20260503225717 14 224 6.4 6.4 0.00 0.00 0.00 34 1012.3
20260503225217 14 186 4.8 6.4 0.00 0.00 0.00 37 1012.4
20260503224715 14 273 4.8 6.4 0.00 0.00 0.00 36 1012.3
20260503224213 15 191 1.6 1.6 0.00 0.00 0.00 35 1012.4
20260503223710 15 172 8.0 9.7 0.00 0.00 0.00 35 1012.4
20260503223207 14 190 4.8 4.8 0.00 0.00 0.00 35 1012.4
20260503222704 13 154 0.0 1.6 0.00 0.00 0.00 35 1012.4
20260503222201 13 11 4.8 6.4 0.00 0.00 0.00 37 1012.6
20260503221700 13 148 1.6 1.6 0.00 0.00 0.00 35 1012.6
20260503221157 13 210 9.7 11.3 0.00 0.00 0.00 36 1012.5
20260503220653 13 299 4.8 6.4 0.00 0.00 0.00 35 1012.6
20260503220150 13 205 8.0 11.3 0.00 0.00 0.00 35 1012.8
20260503215647 14 358 8.0 9.7 0.00 0.00 0.00 34 1012.7
20260503215143 13 240 1.6 4.8 0.00 0.00 0.00 36 1012.8
20260503214643 13 294 11.3 16.1 0.00 0.00 0.00 36 1012.8
20260503214138 13 211 8.0 11.3 0.00 0.00 0.00 35 1012.7
20260503213632 13 266 4.8 6.4 0.00 0.00 0.00 35 1012.9
20260503213128 13 359 4.8 9.7 0.00 0.00 0.00 35 1012.8
20260503212625 13 174 3.2 4.8 0.00 0.00 0.00 35 1012.6
20260503212123 14 195 6.4 6.4 0.00 0.00 0.00 34 1012.6
20260503211620 15 208 4.8 6.4 0.00 0.00 0.00 34 1012.6
20260503211116 15 151 4.8 4.8 0.00 0.00 0.00 33 1012.7
20260503210613 15 54 3.2 4.8 0.00 0.00 0.00 33 1012.5
20260503210109 14 193 4.8 6.4 0.00 0.00 0.00 34 1012.6
20260503205605 15 189 4.8 6.4 0.00 0.00 0.00 34 1012.4
20260503205101 15 150 4.8 6.4 0.00 0.00 0.00 32 1012.7
20260503204558 16 286 9.7 14.5 0.00 0.00 0.00 32 1012.6
20260503204055 15 199 8.0 9.7 0.00 0.00 0.00 31 1012.7
20260503203552 15 152 1.6 1.6 0.00 0.00 0.00 33 1012.7
20260503203049 15 147 1.6 1.6 0.00 0.00 0.00 33 1012.7
20260503202547 15 223 8.0 11.3 0.00 0.00 0.00 34 1012.6
20260503202045 15 214 8.0 9.7 0.00 0.00 0.00 34 1012.7
20260503201543 15 264 8.0 11.3 0.00 0.00 0.00 33 1012.7
20260503201040 16 304 4.8 6.4 0.00 0.00 0.00 31 1012.8
20260503200536 15 199 6.4 9.7 0.00 0.00 0.00 34 1012.7
20260503200033 15 277 11.3 16.1 0.00 0.00 0.00 34 1013.0
20260503195530 15 211 4.8 4.8 0.00 0.00 0.00 32 1012.9
20260503195027 16 326 11.3 17.7 0.00 0.00 0.00 32 1012.9
20260503194525 15 229 9.7 11.3 0.00 0.00 0.00 33 1013.3
20260503194024 15 316 8.0 9.7 0.00 0.00 0.00 33 1013.3
20260503193521 15 221 6.4 6.4 0.00 0.00 0.00 33 1013.3
20260503193016 14 164 3.2 4.8 0.00 0.00 0.00 34 1013.3
20260503192512 14 208 1.6 1.6 0.00 0.00 0.00 35 1013.1
20260503192008 15 148 1.6 1.6 0.00 0.00 0.00 34 1013.4
20260503191506 16 228 6.4 9.7 0.00 0.00 0.00 32 1013.4
20260503191002 15 295 4.8 6.4 0.00 0.00 0.00 34 1013.4
20260503190459 14 175 8.0 9.7 0.00 0.00 0.00 35 1013.5
20260503185956 15 278 11.3 16.1 0.00 0.00 0.00 33 1013.9
20260503185452 13 234 4.8 4.8 0.00 0.00 0.00 35 1013.7
20260503184952 14 127 3.2 4.8 0.00 0.00 0.00 35 1013.6
20260503184448 14 218 6.4 9.7 0.00 0.00 0.00 35 1014.0
20260503183945 14 218 6.4 9.7 0.00 0.00 0.00 35 1014.1
20260503183442 14 211 4.8 9.7 0.00 0.00 0.00 35 1013.8
20260503182938 15 88 6.4 9.7 0.00 0.00 0.00 37 1014.0
20260503182437 14 124 3.2 4.8 0.00 0.00 0.00 36 1013.8
20260503181934 13 355 12.9 16.1 0.00 0.00 0.00 35 1013.8
20260503181431 13 164 11.3 14.5 0.00 0.00 0.00 36 1014.1
20260503180927 14 100 4.8 4.8 0.00 0.00 0.00 37 1014.2
20260503180427 13 229 4.8 6.4 0.00 0.00 0.00 36 1014.2
20260503175922 13 140 0.0 1.6 0.00 0.00 0.00 37 1014.1
20260503175421 13 336 8.0 11.3 0.00 0.00 0.00 36 1014.1
20260503174916 14 284 11.3 16.1 0.00 0.00 0.00 35 1014.4
20260503174414 13 340 6.4 6.4 0.00 0.00 0.00 37 1014.1
20260503173909 13 304 4.8 9.7 0.00 0.00 0.00 36 1014.2
20260503173405 12 16 3.2 4.8 0.00 0.00 0.00 38 1014.4
20260503172902 12 187 4.8 6.4 0.00 0.00 0.00 38 1014.5
20260503172400 13 279 8.0 11.3 0.00 0.00 0.00 36 1014.4
20260503171855 12 308 9.7 11.3 0.00 0.00 0.00 37 1014.7
20260503171352 12 98 1.6 4.8 0.00 0.00 0.00 39 1014.4
20260503170850 12 314 11.3 16.1 0.00 0.00 0.00 37 1014.4
20260503170346 12 312 8.0 11.3 0.00 0.00 0.00 38 1014.4
20260503150738 10 259 8.0 11.3 0.00 0.00 0.00 39 1015.8
20260503150234 9 314 12.9 17.7 0.00 0.00 0.00 40 1015.6
20260503140159 8 86 4.8 6.4 0.00 0.00 0.00 47 1015.7
20260503131128 7 197 4.8 4.8 0.00 0.00 0.00 53 1016.2
20260503130626 7 179 3.2 4.8 0.00 0.00 0.00 55 1015.9
20260503130124 7 102 0.0 1.6 0.00 0.00 0.00 55 1016.0
20260503110516 1 119 0.0 0.0 0.00 0.00 0.00 73 1015.3
20260503090408 1 103 0.0 0.0 0.00 0.00 0.00 73 1014.7
20260503081335 1 102 0.0 1.6 0.00 0.00 0.00 71 1014.6
20260503080832 1 122 0.0 0.0 0.00 0.00 0.00 70 1014.4
20260503080329 1 126 0.0 0.0 0.00 0.00 0.00 68 1014.3
20260503072805 2 123 0.0 0.0 0.00 0.00 0.00 67 1014.2
20260503072305 2 115 0.0 0.0 0.00 0.00 0.00 65 1014.2
20260503071758 2 115 0.0 0.0 0.00 0.00 0.00 66 1014.1
20260503071255 2 111 0.0 0.0 0.00 0.00 0.00 64 1014.2
20260503070751 2 173 1.6 1.6 0.00 0.00 0.00 65 1014.0
20260503070250 2 123 0.0 1.6 0.00 0.00 0.00 65 1014.0
20260503060215 3 50 1.6 1.6 0.00 0.00 0.00 64 1014.0
20260503054701 3 296 4.8 6.4 0.00 0.00 0.00 63 1013.8
20260503054159 3 261 1.6 1.6 0.00 0.00 0.00 63 1013.9
20260503053656 3 239 3.2 4.8 0.00 0.00 0.00 63 1014.0
20260503053155 4 146 0.0 0.0 0.00 0.00 0.00 62 1014.1
20260503052651 4 79 1.6 1.6 0.00 0.00 0.00 62 1014.0
20260503052147 4 32 0.0 1.6 0.00 0.00 0.00 61 1013.9
20260503051643 4 123 0.0 0.0 0.00 0.00 0.00 62 1014.0
20260503051141 5 326 0.0 1.6 0.00 0.00 0.00 61 1014.0
20260503050637 5 83 1.6 1.6 0.00 0.00 0.00 61 1014.3
20260503050134 5 75 1.6 1.6 0.00 0.00 0.00 61 1014.3